Location: Bosdarros
(43.2167°N, 0.3667°W)
Time: 02:58:50
(UTC+00:00)

BREEZE M DEB (TANK) - Pass Details

Date: 22 April 2021
Orbit: 342 x 13618 km, 49.6° (Epoch: 13 May)

Event Time Altitude Azimuth Distance (km) Brightness Sun altitude
Rises 19:48:26 0° 197° (SSW) 2,257 5.8 -10.2°
Reaches altitude 10° 19:50:05 10° 181° (S) 1,622 4.9 -10.4°
Maximum altitude 19:52:52 26° 121° (ESE) 1,367 4.2 -10.9°
Drops below altitude 10° 19:58:42 10° 67° (ENE) 3,571 6.6 -11.8°
Sets 20:04:41 0° 58° (ENE) 6,131 7.9 -12.7°
